Powrót do katalogu

COSMOS 2251 DEB

AktywnyLEO
NORAD 47069·DEBRIS·🇷🇺 Russia

Wystrzelony Jun 16, 1993 z Plesetsk Cosmodrome

Loading…

Następne Przeloty (najbliższe 24 godziny)

TLE

Starzejące sięSource: Space-Track

Epoka: Sep 8, 2026, 09:37 UTC

1 47069U 93036BXZ 26251.40101507  .00013955  00000-0  14362-2 0  9992
2 47069  74.0101 295.6746 0006134 266.9329  93.1151 14.90305571765037

Śledź COSMOS 2251 DEB w czasie rzeczywistym z AllMySat

Download on the App Store